This demonstration page uses our WeatherBlox Daily Observations layout. Learn more.

Left ArrowRight Arrow

39.92423, -83.80882

Hourly Observations for May 2, 2019

Temp ( °F °C ) Dew Point ( °F °C ) Humidity (%) Winds ( mph kmh ) Pressure ( in mb ) Visibility ( mi km ) Precip ( " mm )
12:56 am 00:56 Cloudy with Heavy Rain 61 16.1 61 16.1 100 100 SE 3 6 30.11 1020 4 6 0.17 4.32
1:08 am 01:08 Cloudy with Rain 61 16 61 16 100 100 SE 5 7 30.11 1020 3 4 0.03 0.76
1:17 am 01:17 Cloudy with Rain 61 16 61 16 100 100 SSE 3 6 30.10 1019 5 8 0.06 1.52
1:56 am 01:56 Cloudy 60 15.6 60 15.6 100 100 SSE 5 7 30.09 1019 10 16 0.15 3.81
2:56 am 02:56 Mostly Cloudy 60 15.6 60 15.6 100 100 SSE 6 9 30.09 1019 10 16 0.10 2.54
3:40 am 03:40 Mostly Cloudy with Mist and Fog 59 15 59 15 100 100 SSE 3 6 30.09 1019 4 6 0.01 0.25
3:56 am 03:56 Cloudy 59 15 59 15 100 100 N N/A 30.09 1019 10 16 0.01 0.25
4:07 am 04:07 Cloudy 59 15 59 15 100 100 SSE 3 6 30.09 1019 10 16 N/A
4:56 am 04:56 Mostly Cloudy with Mist and Fog 58 14.4 58 14.4 100 100 N N/A 30.11 1020 3 5 N/A
5:01 am 05:01 Mostly Cloudy with Mist and Fog 57 14 57 14 100 100 N N/A 30.12 1020 2 3 N/A
5:08 am 05:08 Partly Cloudy with Mist and Fog 57 14 57 14 100 100 N N/A 30.12 1020 1 1 N/A
5:17 am 05:17 Mostly Clear with Fog 57 14 57 14 100 100 N N/A 30.12 1020 1 1 N/A
5:30 am 05:30 Mostly Cloudy with Fog 57 14 57 14 100 100 NW 3 6 30.12 1020 1 1 N/A
5:38 am 05:38 Mostly Cloudy with Fog 57 14 57 14 100 100 NNW 3 6 30.12 1020 0 0 N/A
5:56 am 05:56 Cloudy with Fog 54 12.2 54 12.2 100 100 NNW 5 7 30.12 1020 0 0 N/A
6:11 am 06:11 Cloudy with Fog 55 13 55 13 100 100 NNE 3 6 30.12 1020 1 1 N/A
6:48 am 06:48 Cloudy with Mist and Fog 57 14 57 14 100 100 N N/A 30.12 1020 1 1 N/A
6:56 am 06:56 Cloudy with Mist and Fog 58 14.4 58 14.4 100 100 NNE 3 6 30.12 1020 1 1 N/A
6:58 am 06:58 Cloudy with Mist and Fog 57 14 57 14 100 100 N N/A 30.12 1020 1 2 N/A
7:09 am 07:09 Cloudy with Mist and Fog 57 14 57 14 100 100 NNE 3 6 30.13 1020 1 1 N/A
7:16 am 07:16 Cloudy with Fog 59 15 59 15 100 100 N N/A 30.12 1020 0 0 N/A
7:56 am 07:56 Cloudy with Fog 60 15.6 60 15.6 100 100 N N/A 30.13 1020 0 0 N/A
8:15 am 08:15 Cloudy with Fog 61 16 61 16 100 100 N N/A 30.13 1020 1 1 N/A
8:26 am 08:26 Cloudy with Fog 61 16 61 16 100 100 SE 5 7 30.13 1020 0 0 N/A
8:56 am 08:56 Cloudy with Fog 60 15.6 60 15.6 100 100 N N/A 30.14 1021 0 0 N/A
9:11 am 09:11 Cloudy with Mist and Fog 61 16 61 16 100 100 N N/A 30.14 1021 1 1 N/A
9:22 am 09:22 Cloudy with Fog 61 16 61 16 100 100 SE 5 7 30.13 1020 1 1 N/A
9:41 am 09:41 Cloudy with Mist and Fog 61 16 61 16 100 100 SE 3 6 30.13 1020 1 2 N/A
9:56 am 09:56 Cloudy with Mist and Fog 61 16.1 61 16.1 100 100 E 5 7 30.14 1021 2 2 N/A
10:13 am 10:13 Cloudy with Mist and Fog 63 17 63 17 100 100 SSE 6 9 30.12 1020 3 5 N/A
10:56 am 10:56 Cloudy 63 17.2 63 17.2 100 100 S 5 7 30.15 1021 10 16 N/A
11:26 am 11:26 Cloudy 64 18 64 18 100 100 S 6 9 30.13 1020 10 16 N/A
11:56 am 11:56 Cloudy 67 19.4 65 18.3 93 93 S 6 9 30.15 1021 10 16 N/A
12:23 pm 12:23 Partly Cloudy 70 21 64 18 83 83 SSE 7 11 30.11 1020 10 16 N/A
12:42 pm 12:42 Mostly Cloudy 70 21 64 18 83 83 S 7 11 30.10 1019 10 16 N/A
12:56 pm 12:56 Mostly Cloudy 71 21.7 65 18.3 81 81 VRB 7 11 30.12 1020 10 16 N/A
1:51 pm 13:51 Cloudy 72 22 64 18 78 78 SSW 6 9 30.07 1018 10 16 N/A
1:56 pm 13:56 Cloudy 71 21.7 64 17.8 79 79 SW 7 11 30.10 1019 10 16 N/A
2:56 pm 14:56 Cloudy 70 21.1 66 18.9 87 87 SSW 5 7 30.11 1020 10 16 0.04 1.02
3:26 pm 15:26 Cloudy 70 21 64 18 83 83 SSW 6 9 30.08 1019 10 16 N/A
3:52 pm 15:52 Cloudy 70 21 64 18 83 83 SSW 5 7 30.07 1018 10 16 N/A
3:56 pm 15:56 Cloudy 70 21.1 65 18.3 84 84 S 5 7 30.09 1019 10 16 N/A
4:56 pm 16:56 Partly Cloudy 72 22.2 67 19.4 84 84 S 3 6 30.07 1018 10 16 N/A
5:56 pm 17:56 Mostly Cloudy 72 22.2 65 18.3 79 79 N N/A 30.06 1018 10 16 N/A
6:56 pm 18:56 Cloudy 71 21.7 60 15.6 68 68 W 12 19 30.06 1018 10 16 N/A
7:56 pm 19:56 Partly Cloudy 69 20.6 61 16.1 76 76 WSW 5 7 30.06 1018 10 16 N/A
8:56 pm 20:56 Partly Cloudy 68 20 61 16.1 78 78 S 5 7 30.06 1018 10 16 N/A
9:56 pm 21:56 Clear 66 18.9 65 18.3 96 96 SSE 6 9 30.05 1018 10 16 N/A
10:56 pm 22:56 Clear 65 18.3 65 18.3 100 100 S 5 7 30.04 1017 10 16 N/A
11:56 pm 23:56 Mostly Cloudy 65 18.3 64 17.8 97 97 SSW 3 6 30.04 1017 10 16 N/A

Powered by AerisWeather